Time,TemperatureF,DewpointF,PressureIn,WindDirection,WindDirectionDegrees,WindSpeedMPH,WindSpeedGustMPH,Humidity,HourlyPrecipIn,Conditions,Clouds,dailyrainin,SoftwareType,DateUTC
2013-03-17 00:00:00,62.1,51.4,29.81,WSW,249,3.0,5.0,68,0.00,,,0.00,WUHU216DAVISVP2,2013-03-17 04:00:00,
2013-03-17 00:05:00,62.0,51.3,29.81,SW,232,3.0,5.0,68,0.00,,,0.00,WUHU216DAVISVP2,2013-03-17 04:05:00,
2013-03-17 00:10:00,61.9,51.8,29.82,WSW,256,1.0,5.0,69,0.00,,,0.00,WUHU216DAVISVP2,2013-03-17 04:10:00,
2013-03-17 00:15:00,61.8,51.7,29.82,SW,235,3.0,5.0,69,0.00,,,0.00,WUHU216DAVISVP2,2013-03-17 04:15:00,
2013-03-17 00:20:00,61.8,51.7,29.82,West,259,3.0,5.0,69,0.00,,,0.00,WUHU216DAVISVP2,2013-03-17 04:20:00,
2013-03-17 00:25:00,61.8,51.7,29.82,West,260,4.0,4.0,69,0.00,,,0.00,WUHU216DAVISVP2,2013-03-17 04:25:00,
2013-03-17 00:30:00,61.7,52.0,29.82,WSW,238,2.0,5.0,70,0.00,,,0.00,WUHU216DAVISVP2,2013-03-17 04:30:00,
2013-03-17 00:35:00,61.6,51.9,29.83,WSW,248,2.0,5.0,70,0.00,,,0.00,WUHU216DAVISVP2,2013-03-17 04:35:00,
2013-03-17 00:40:00,61.6,51.9,29.83,WSW,252,3.0,5.0,70,0.00,,,0.00,WUHU216DAVISVP2,2013-03-17 04:40:00,
2013-03-17 00:45:00,61.6,51.9,29.83,West,277,2.0,5.0,70,0.00,,,0.00,WUHU216DAVISVP2,2013-03-17 04:45:00,
2013-03-17 00:50:00,61.4,51.7,29.83,WSW,258,3.0,5.0,70,0.00,,,0.00,WUHU216DAVISVP2,2013-03-17 04:50:00,
2013-03-17 00:55:00,61.4,52.0,29.83,WSW,238,2.0,5.0,71,0.00,,,0.00,WUHU216DAVISVP2,2013-03-17 04:55:00,
2013-03-17 01:00:00,61.2,51.9,29.83,West,266,1.0,5.0,71,0.00,,,0.00,WUHU216DAVISVP2,2013-03-17 05:00:00,
2013-03-17 01:05:00,60.9,51.4,29.84,WSW,239,1.0,4.0,71,0.00,,,0.00,WUHU216DAVISVP2,2013-03-17 05:05:00,
2013-03-17 01:10:00,60.7,51.7,29.84,WSW,257,1.0,4.0,72,0.00,,,0.00,WUHU216DAVISVP2,2013-03-17 05:10:00,
2013-03-17 01:15:00,60.4,51.3,29.83,West,276,0.0,2.0,72,0.00,,,0.00,WUHU216DAVISVP2,2013-03-17 05:15:00,
2013-03-17 01:20:00,60.3,51.6,29.83,WNW,286,0.0,2.0,73,0.00,,,0.00,WUHU216DAVISVP2,2013-03-17 05:20:00,
2013-03-17 01:25:00,60.2,51.6,29.83,WNW,285,1.0,2.0,73,0.00,,,0.00,WUHU216DAVISVP2,2013-03-17 05:25:00,
2013-03-17 01:30:00,60.3,51.6,29.83,West,264,1.0,3.0,73,0.00,,,0.00,WUHU216DAVISVP2,2013-03-17 05:30:00,
2013-03-17 01:35:00,60.6,51.5,29.83,WSW,253,1.0,3.0,72,0.00,,,0.00,WUHU216DAVISVP2,2013-03-17 05:35:00,
2013-03-17 01:40:00,60.9,51.4,29.83,SW,230,2.0,3.0,71,0.00,,,0.00,WUHU216DAVISVP2,2013-03-17 05:40:00,
2013-03-17 01:45:00,60.9,51.6,29.83,SE,141,1.0,3.0,71,0.00,,,0.00,WUHU216DAVISVP2,2013-03-17 05:45:00,
2013-03-17 01:50:00,59.9,51.0,29.84,SE,124,0.0,3.0,72,0.00,,,0.00,WUHU216DAVISVP2,2013-03-17 05:50:00,
2013-03-17 01:55:00,58.9,50.7,29.84,SE,142,0.0,3.0,74,0.00,,,0.00,WUHU216DAVISVP2,2013-03-17 05:55:00,
2013-03-17 02:00:00,58.4,51.0,29.84,SE,142,0.0,3.0,76,0.00,,,0.00,WUHU216DAVISVP2,2013-03-17 06:00:00,
2013-03-17 02:05:00,58.3,50.9,29.85,SE,143,0.0,3.0,76,0.00,,,0.00,WUHU216DAVISVP2,2013-03-17 06:05:00,
2013-03-17 02:10:00,58.1,51.0,29.85,SW,231,0.0,0.0,77,0.00,,,0.00,WUHU216DAVISVP2,2013-03-17 06:10:00,
2013-03-17 02:15:00,58.0,50.9,29.85,SW,230,0.0,1.0,77,0.00,,,0.00,WUHU216DAVISVP2,2013-03-17 06:15:00,
2013-03-17 02:20:00,57.8,50.7,29.85,North,5,0.0,5.0,77,0.00,,,0.00,WUHU216DAVISVP2,2013-03-17 06:20:00,
2013-03-17 02:25:00,58.2,51.0,29.85,North,356,1.0,5.0,77,0.00,,,0.00,WUHU216DAVISVP2,2013-03-17 06:25:00,
2013-03-17 02:30:00,58.2,51.0,29.86,NE,35,0.0,4.0,77,0.00,,,0.00,WUHU216DAVISVP2,2013-03-17 06:30:00,
2013-03-17 02:35:00,58.4,51.3,29.85,NE,35,0.0,4.0,77,0.00,,,0.00,WUHU216DAVISVP2,2013-03-17 06:35:00,
2013-03-17 02:40:00,58.5,51.1,29.86,NE,36,0.0,1.0,76,0.00,,,0.00,WUHU216DAVISVP2,2013-03-17 06:40:00,
2013-03-17 02:45:00,58.1,51.0,29.85,NNE,15,0.0,2.0,77,0.00,,,0.00,WUHU216DAVISVP2,2013-03-17 06:45:00,
2013-03-17 02:50:00,57.4,50.7,29.86,NNE,16,0.0,2.0,78,0.00,,,0.00,WUHU216DAVISVP2,2013-03-17 06:50:00,
2013-03-17 02:55:00,57.3,50.6,29.86,NNE,16,0.0,2.0,78,0.00,,,0.00,WUHU216DAVISVP2,2013-03-17 06:55:00,
2013-03-17 03:00:00,57.2,50.8,29.86,NNE,15,0.0,2.0,79,0.00,,,0.00,WUHU216DAVISVP2,2013-03-17 07:00:00,
2013-03-17 03:05:00,57.4,50.7,29.86,ENE,60,1.0,1.0,78,0.00,,,0.00,WUHU216DAVISVP2,2013-03-17 07:05:00,
2013-03-17 03:10:00,57.4,50.3,29.86,ESE,122,2.0,2.0,77,0.00,,,0.00,WUHU216DAVISVP2,2013-03-17 07:10:00,
2013-03-17 03:15:00,56.2,49.8,29.86,SE,142,0.0,2.0,79,0.00,,,0.00,WUHU216DAVISVP2,2013-03-17 07:15:00,
2013-03-17 03:20:00,55.6,49.9,29.86,SE,142,0.0,2.0,81,0.00,,,0.00,WUHU216DAVISVP2,2013-03-17 07:20:00,
2013-03-17 03:25:00,55.2,49.8,29.86,SE,142,0.0,2.0,82,0.00,,,0.00,WUHU216DAVISVP2,2013-03-17 07:25:00,
2013-03-17 03:30:00,55.1,50.0,29.86,SE,142,0.0,2.0,83,0.00,,,0.00,WUHU216DAVISVP2,2013-03-17 07:30:00,
2013-03-17 03:35:00,55.4,50.0,29.87,SE,142,0.0,1.0,82,0.00,,,0.00,WUHU216DAVISVP2,2013-03-17 07:35:00,
2013-03-17 03:40:00,55.7,50.3,29.87,SE,143,0.0,1.0,82,0.00,,,0.00,WUHU216DAVISVP2,2013-03-17 07:40:00,
2013-03-17 03:45:00,55.6,49.9,29.87,SE,143,0.0,1.0,81,0.00,,,0.00,WUHU216DAVISVP2,2013-03-17 07:45:00,
2013-03-17 03:50:00,55.3,50.2,29.86,SE,142,0.0,0.0,83,0.00,,,0.00,WUHU216DAVISVP2,2013-03-17 07:50:00,
2013-03-17 03:55:00,55.3,50.2,29.86,SE,142,0.0,0.0,83,0.00,,,0.00,WUHU216DAVISVP2,2013-03-17 07:55:00,
2013-03-17 04:00:00,55.6,50.2,29.86,SE,143,0.0,0.0,82,0.00,,,0.00,WUHU216DAVISVP2,2013-03-17 08:00:00,
2013-03-17 04:05:00,55.9,50.5,29.86,SE,142,1.0,1.0,82,0.00,,,0.00,WUHU216DAVISVP2,2013-03-17 08:05:00,
2013-03-17 04:10:00,56.4,50.4,29.85,ENE,70,2.0,2.0,80,0.00,,,0.00,WUHU216DAVISVP2,2013-03-17 08:10:00,
2013-03-17 04:15:00,56.3,50.3,29.85,NE,36,2.0,2.0,80,0.00,,,0.00,WUHU216DAVISVP2,2013-03-17 08:15:00,
2013-03-17 04:20:00,56.2,50.1,29.85,NE,36,1.0,2.0,80,0.00,,,0.00,WUHU216DAVISVP2,2013-03-17 08:20:00,
2013-03-17 04:25:00,56.0,50.3,29.85,NE,36,0.0,2.0,81,0.00,,,0.00,WUHU216DAVISVP2,2013-03-17 08:25:00,
2013-03-17 04:30:00,55.4,49.7,29.86,WSW,240,1.0,2.0,81,0.00,,,0.00,WUHU216DAVISVP2,2013-03-17 08:30:00,
2013-03-17 04:35:00,54.2,49.2,29.86,WSW,257,0.0,2.0,83,0.00,,,0.00,WUHU216DAVISVP2,2013-03-17 08:35:00,
2013-03-17 04:40:00,53.7,49.0,29.86,WSW,257,0.0,1.0,84,0.00,,,0.00,WUHU216DAVISVP2,2013-03-17 08:40:00,
2013-03-17 04:45:00,53.5,49.1,29.86,WSW,257,0.0,1.0,85,0.00,,,0.00,WUHU216DAVISVP2,2013-03-17 08:45:00,
2013-03-17 04:50:00,53.5,49.1,29.86,WSW,257,0.0,1.0,85,0.00,,,0.00,WUHU216DAVISVP2,2013-03-17 08:50:00,
2013-03-17 04:55:00,54.0,49.6,29.87,SSW,193,1.0,1.0,85,0.00,,,0.00,WUHU216DAVISVP2,2013-03-17 08:55:00,
2013-03-17 05:00:00,54.1,49.4,29.87,South,183,0.0,2.0,84,0.00,,,0.00,WUHU216DAVISVP2,2013-03-17 09:00:00,
2013-03-17 05:05:00,53.4,48.7,29.88,SW,226,0.0,2.0,84,0.00,,,0.00,WUHU216DAVISVP2,2013-03-17 09:05:00,
2013-03-17 05:10:00,53.2,49.1,29.88,WSW,239,0.0,2.0,86,0.00,,,0.00,WUHU216DAVISVP2,2013-03-17 09:10:00,
2013-03-17 05:15:00,53.1,48.7,29.88,SE,136,0.0,2.0,85,0.00,,,0.00,WUHU216DAVISVP2,2013-03-17 09:15:00,
2013-03-17 05:20:00,52.9,48.8,29.88,SE,136,0.0,2.0,86,0.00,,,0.00,WUHU216DAVISVP2,2013-03-17 09:20:00,
2013-03-17 05:25:00,52.8,48.7,29.88,SE,135,0.0,2.0,86,0.00,,,0.00,WUHU216DAVISVP2,2013-03-17 09:25:00,
2013-03-17 05:30:00,52.7,48.6,29.88,SE,134,0.0,2.0,86,0.00,,,0.00,WUHU216DAVISVP2,2013-03-17 09:30:00,
2013-03-17 05:35:00,52.8,49.0,29.89,SE,136,0.0,1.0,87,0.00,,,0.00,WUHU216DAVISVP2,2013-03-17 09:35:00,
2013-03-17 05:40:00,53.1,49.3,29.89,NE,37,1.0,3.0,87,0.00,,,0.00,WUHU216DAVISVP2,2013-03-17 09:40:00,
2013-03-17 05:45:00,53.6,49.5,29.90,NE,56,5.0,7.0,86,0.00,,,0.00,WUHU216DAVISVP2,2013-03-17 09:45:00,
2013-03-17 05:50:00,54.0,49.6,29.90,ENE,68,8.0,8.0,85,0.00,,,0.00,WUHU216DAVISVP2,2013-03-17 09:50:00,
2013-03-17 05:55:00,54.1,49.7,29.90,ENE,59,10.0,10.0,85,0.00,,,0.00,WUHU216DAVISVP2,2013-03-17 09:55:00,
2013-03-17 06:00:00,53.9,49.5,29.90,ENE,58,7.0,13.0,85,0.00,,,0.00,WUHU216DAVISVP2,2013-03-17 10:00:00,
2013-03-17 06:05:00,53.3,49.2,29.90,ENE,60,8.0,18.0,86,0.00,,,0.00,WUHU216DAVISVP2,2013-03-17 10:05:00,
2013-03-17 06:10:00,52.7,48.9,29.90,ENE,62,7.0,18.0,87,0.00,,,0.00,WUHU216DAVISVP2,2013-03-17 10:10:00,
2013-03-17 06:15:00,52.2,48.7,29.90,ENE,60,7.0,17.0,88,0.00,,,0.00,WUHU216DAVISVP2,2013-03-17 10:15:00,
2013-03-17 06:20:00,51.9,48.8,29.90,East,79,9.0,17.0,89,0.00,,,0.00,WUHU216DAVISVP2,2013-03-17 10:20:00,
2013-03-17 06:25:00,51.6,48.7,29.89,ENE,61,8.0,15.0,90,0.00,,,0.00,WUHU216DAVISVP2,2013-03-17 10:25:00,
2013-03-17 06:30:00,51.4,48.8,29.90,ENE,60,11.0,15.0,91,0.00,,,0.00,WUHU216DAVISVP2,2013-03-17 10:30:00,
2013-03-17 06:35:00,51.0,48.7,29.90,ENE,60,10.0,16.0,92,0.00,,,0.00,WUHU216DAVISVP2,2013-03-17 10:35:00,
2013-03-17 06:40:00,50.8,48.8,29.91,ENE,63,7.0,16.0,93,0.00,,,0.00,WUHU216DAVISVP2,2013-03-17 10:40:00,
2013-03-17 06:45:00,50.6,48.9,29.91,ENE,62,8.0,16.0,94,0.00,,,0.00,WUHU216DAVISVP2,2013-03-17 10:45:00,
2013-03-17 06:50:00,50.5,48.8,29.91,ENE,58,12.0,17.0,94,0.00,,,0.00,WUHU216DAVISVP2,2013-03-17 10:50:00,
2013-03-17 06:55:00,50.5,49.1,29.91,ENE,65,10.0,17.0,95,0.00,,,0.00,WUHU216DAVISVP2,2013-03-17 10:55:00,
2013-03-17 07:00:00,50.5,49.1,29.92,ENE,63,7.0,17.0,95,0.00,,,0.00,WUHU216DAVISVP2,2013-03-17 11:00:00,
2013-03-17 07:05:00,50.5,49.1,29.92,ENE,60,8.0,15.0,95,0.00,,,0.00,WUHU216DAVISVP2,2013-03-17 11:05:00,
2013-03-17 07:10:00,50.5,49.4,29.92,NE,56,10.0,15.0,96,0.00,,,0.00,WUHU216DAVISVP2,2013-03-17 11:10:00,
2013-03-17 07:15:00,50.6,49.5,29.92,ENE,58,9.0,13.0,96,0.00,,,0.00,WUHU216DAVISVP2,2013-03-17 11:15:00,
2013-03-17 07:20:00,50.6,49.5,29.92,ENE,64,7.0,13.0,96,0.00,,,0.00,WUHU216DAVISVP2,2013-03-17 11:20:00,
2013-03-17 07:25:00,50.6,49.5,29.93,ENE,62,8.0,13.0,96,0.00,,,0.00,WUHU216DAVISVP2,2013-03-17 11:25:00,
2013-03-17 07:30:00,50.6,49.5,29.93,NE,56,12.0,13.0,96,0.00,,,0.00,WUHU216DAVISVP2,2013-03-17 11:30:00,
2013-03-17 07:35:00,50.6,49.5,29.93,ENE,70,6.0,13.0,96,0.00,,,0.00,WUHU216DAVISVP2,2013-03-17 11:35:00,
2013-03-17 07:40:00,50.6,49.5,29.93,NE,55,7.0,13.0,96,0.00,,,0.00,WUHU216DAVISVP2,2013-03-17 11:40:00,
2013-03-17 07:45:00,50.6,49.5,29.94,NE,39,3.0,11.0,96,0.00,,,0.00,WUHU216DAVISVP2,2013-03-17 11:45:00,
2013-03-17 07:50:00,50.6,49.5,29.95,ENE,63,5.0,12.0,96,0.00,,,0.00,WUHU216DAVISVP2,2013-03-17 11:50:00,
2013-03-17 07:55:00,50.5,49.4,29.95,NE,55,8.0,12.0,96,0.00,,,0.00,WUHU216DAVISVP2,2013-03-17 11:55:00,
2013-03-17 08:00:00,50.5,49.4,29.95,ESE,104,6.0,12.0,96,0.00,,,0.00,WUHU216DAVISVP2,2013-03-17 12:00:00,
2013-03-17 08:05:00,50.4,49.3,29.96,NE,56,5.0,12.0,96,0.00,,,0.00,WUHU216DAVISVP2,2013-03-17 12:05:00,
2013-03-17 08:10:00,50.4,49.3,29.96,ENE,62,6.0,12.0,96,0.00,,,0.00,WUHU216DAVISVP2,2013-03-17 12:10:00,
2013-03-17 08:15:00,50.4,49.3,29.97,NE,49,6.0,11.0,96,0.00,,,0.00,WUHU216DAVISVP2,2013-03-17 12:15:00,
2013-03-17 08:20:00,50.3,49.2,29.97,ENE,67,6.0,11.0,96,0.00,,,0.00,WUHU216DAVISVP2,2013-03-17 12:20:00,
2013-03-17 08:25:00,50.1,49.0,29.97,NE,49,8.0,11.0,96,0.00,,,0.00,WUHU216DAVISVP2,2013-03-17 12:25:00,
2013-03-17 08:30:00,50.0,48.9,29.97,ENE,76,8.0,13.0,96,0.00,,,0.00,WUHU216DAVISVP2,2013-03-17 12:30:00,
2013-03-17 08:35:00,49.7,48.6,29.97,NE,51,9.0,14.0,96,0.00,,,0.00,WUHU216DAVISVP2,2013-03-17 12:35:00,
2013-03-17 08:40:00,49.4,48.3,29.97,ENE,60,7.0,14.0,96,0.00,,,0.00,WUHU216DAVISVP2,2013-03-17 12:40:00,
2013-03-17 08:45:00,49.1,48.0,29.97,ENE,70,9.0,17.0,96,0.00,,,0.00,WUHU216DAVISVP2,2013-03-17 12:45:00,
2013-03-17 08:50:00,48.8,47.7,29.98,NE,53,7.0,17.0,96,0.00,,,0.00,WUHU216DAVISVP2,2013-03-17 12:50:00,
2013-03-17 08:55:00,48.6,47.5,29.98,ENE,70,8.0,15.0,96,0.00,,,0.00,WUHU216DAVISVP2,2013-03-17 12:55:00,
2013-03-17 09:00:00,48.4,47.3,29.99,ENE,58,11.0,15.0,96,0.00,,,0.00,WUHU216DAVISVP2,2013-03-17 13:00:00,
2013-03-17 09:05:00,48.1,47.0,29.99,NE,47,12.0,17.0,96,0.00,,,0.00,WUHU216DAVISVP2,2013-03-17 13:05:00,
2013-03-17 09:10:00,48.0,46.9,29.99,ENE,62,11.0,17.0,96,0.00,,,0.00,WUHU216DAVISVP2,2013-03-17 13:10:00,
2013-03-17 09:15:00,47.8,46.7,30.00,NE,45,4.0,15.0,96,0.00,,,0.00,WUHU216DAVISVP2,2013-03-17 13:15:00,
2013-03-17 09:20:00,47.7,46.6,30.00,NE,49,12.0,16.0,96,0.00,,,0.00,WUHU216DAVISVP2,2013-03-17 13:20:00,
2013-03-17 09:25:00,47.6,46.5,30.00,NE,48,10.0,16.0,96,0.00,,,0.00,WUHU216DAVISVP2,2013-03-17 13:25:00,
2013-03-17 09:30:00,47.6,46.5,30.01,ENE,73,4.0,15.0,96,0.00,,,0.00,WUHU216DAVISVP2,2013-03-17 13:30:00,
2013-03-17 09:35:00,47.5,46.4,30.01,ENE,57,6.0,15.0,96,0.00,,,0.00,WUHU216DAVISVP2,2013-03-17 13:35:00,
2013-03-17 09:40:00,47.5,46.4,30.00,NE,49,7.0,15.0,96,0.00,,,0.00,WUHU216DAVISVP2,2013-03-17 13:40:00,
2013-03-17 09:45:00,47.5,46.4,30.01,ENE,65,5.0,15.0,96,0.00,,,0.00,WUHU216DAVISVP2,2013-03-17 13:45:00,
2013-03-17 09:50:00,47.5,46.1,30.02,North,352,6.0,15.0,95,0.00,,,0.00,WUHU216DAVISVP2,2013-03-17 13:50:00,
2013-03-17 09:55:00,47.4,45.7,30.02,NE,53,8.0,13.0,94,0.00,,,0.00,WUHU216DAVISVP2,2013-03-17 13:55:00,
2013-03-17 10:00:00,47.4,45.4,30.02,NE,51,6.0,13.0,93,0.00,,,0.00,WUHU216DAVISVP2,2013-03-17 14:00:00,
2013-03-17 10:05:00,47.5,45.5,30.02,NE,36,6.0,15.0,93,0.00,,,0.00,WUHU216DAVISVP2,2013-03-17 14:05:00,
2013-03-17 10:10:00,47.5,45.2,30.02,ENE,67,11.0,19.0,92,0.00,,,0.00,WUHU216DAVISVP2,2013-03-17 14:10:00,
2013-03-17 10:15:00,47.5,45.0,30.02,ESE,118,4.0,19.0,91,0.00,,,0.00,WUHU216DAVISVP2,2013-03-17 14:15:00,
2013-03-17 10:20:00,47.6,45.1,30.02,ENE,61,6.0,18.0,91,0.00,,,0.00,WUHU216DAVISVP2,2013-03-17 14:20:00,
2013-03-17 10:25:00,47.6,45.1,30.02,NE,49,7.0,17.0,91,0.00,,,0.00,WUHU216DAVISVP2,2013-03-17 14:25:00,
2013-03-17 10:30:00,47.6,45.1,30.02,NE,56,8.0,17.0,91,0.00,,,0.00,WUHU216DAVISVP2,2013-03-17 14:30:00,
2013-03-17 10:35:00,47.6,45.1,30.02,ENE,59,6.0,17.0,91,0.00,,,0.00,WUHU216DAVISVP2,2013-03-17 14:35:00,
2013-03-17 10:40:00,47.4,44.9,30.03,NE,56,7.0,15.0,91,0.00,,,0.00,WUHU216DAVISVP2,2013-03-17 14:40:00,
2013-03-17 10:45:00,46.9,44.7,30.02,NE,48,8.0,15.0,92,0.00,,,0.00,WUHU216DAVISVP2,2013-03-17 14:45:00,
2013-03-17 10:50:00,46.6,44.4,30.03,ENE,68,8.0,16.0,92,0.00,,,0.00,WUHU216DAVISVP2,2013-03-17 14:50:00,
2013-03-17 10:55:00,46.5,44.3,30.02,East,79,6.0,16.0,92,0.00,,,0.00,WUHU216DAVISVP2,2013-03-17 14:55:00,
2013-03-17 11:00:00,46.3,43.8,30.03,ENE,58,15.0,17.0,91,0.00,,,0.00,WUHU216DAVISVP2,2013-03-17 15:00:00,
2013-03-17 11:05:00,46.1,43.6,30.03,ENE,59,10.0,21.0,91,0.00,,,0.00,WUHU216DAVISVP2,2013-03-17 15:05:00,
2013-03-17 11:10:00,46.1,43.6,30.03,ENE,74,9.0,21.0,91,0.00,,,0.00,WUHU216DAVISVP2,2013-03-17 15:10:00,
2013-03-17 11:15:00,46.1,43.3,30.03,NE,56,8.0,20.0,90,0.00,,,0.00,WUHU216DAVISVP2,2013-03-17 15:15:00,
2013-03-17 11:20:00,46.2,43.1,30.04,NE,56,8.0,20.0,89,0.00,,,0.00,WUHU216DAVISVP2,2013-03-17 15:20:00,
2013-03-17 11:25:00,46.1,43.0,30.04,ENE,61,12.0,18.0,89,0.00,,,0.00,WUHU216DAVISVP2,2013-03-17 15:25:00,
2013-03-17 11:30:00,46.1,43.0,30.04,ENE,57,10.0,20.0,89,0.00,,,0.00,WUHU216DAVISVP2,2013-03-17 15:30:00,
2013-03-17 11:35:00,46.3,43.2,30.04,ENE,67,7.0,20.0,89,0.00,,,0.00,WUHU216DAVISVP2,2013-03-17 15:35:00,
2013-03-17 11:40:00,46.0,42.9,30.04,NE,41,15.0,18.0,89,0.00,,,0.00,WUHU216DAVISVP2,2013-03-17 15:40:00,
2013-03-17 11:45:00,45.8,43.0,30.05,NNE,33,9.0,18.0,90,0.00,,,0.00,WUHU216DAVISVP2,2013-03-17 15:45:00,
2013-03-17 11:50:00,45.6,42.8,30.05,NNE,32,8.0,16.0,90,0.00,,,0.00,WUHU216DAVISVP2,2013-03-17 15:50:00,
2013-03-17 11:55:00,45.5,42.7,30.05,ENE,69,7.0,18.0,90,0.00,,,0.00,WUHU216DAVISVP2,2013-03-17 15:55:00,
2013-03-17 12:00:00,45.3,42.5,30.05,ENE,58,10.0,18.0,90,0.00,,,0.00,WUHU216DAVISVP2,2013-03-17 16:00:00,
2013-03-17 12:05:00,45.1,42.3,30.05,North,356,2.0,16.0,90,0.00,,,0.00,WUHU216DAVISVP2,2013-03-17 16:05:00,
2013-03-17 12:10:00,45.1,42.3,30.05,NNE,29,11.0,16.0,90,0.00,,,0.00,WUHU216DAVISVP2,2013-03-17 16:10:00,
2013-03-17 12:15:00,45.1,42.3,30.06,NE,48,7.0,15.0,90,0.00,,,0.00,WUHU216DAVISVP2,2013-03-17 16:15:00,
2013-03-17 12:20:00,45.1,42.3,30.06,NE,50,12.0,15.0,90,0.00,,,0.00,WUHU216DAVISVP2,2013-03-17 16:20:00,
2013-03-17 12:25:00,44.9,42.1,30.06,NE,53,8.0,15.0,90,0.00,,,0.00,WUHU216DAVISVP2,2013-03-17 16:25:00,
2013-03-17 12:30:00,45.0,42.2,30.06,NE,51,5.0,14.0,90,0.00,,,0.00,WUHU216DAVISVP2,2013-03-17 16:30:00,
2013-03-17 12:35:00,44.9,42.1,30.06,NE,43,7.0,16.0,90,0.00,,,0.00,WUHU216DAVISVP2,2013-03-17 16:35:00,
2013-03-17 12:40:00,44.9,41.8,30.06,NE,49,6.0,16.0,89,0.00,,,0.00,WUHU216DAVISVP2,2013-03-17 16:40:00,
2013-03-17 12:45:00,44.8,41.7,30.06,NE,35,10.0,16.0,89,0.00,,,0.00,WUHU216DAVISVP2,2013-03-17 16:45:00,
2013-03-17 12:50:00,44.9,41.9,30.06,ENE,67,17.0,17.0,89,0.00,,,0.00,WUHU216DAVISVP2,2013-03-17 16:50:00,
2013-03-17 12:55:00,44.9,41.5,30.06,NE,47,7.0,17.0,88,0.00,,,0.00,WUHU216DAVISVP2,2013-03-17 16:55:00,
2013-03-17 13:00:00,44.9,41.5,30.06,NE,56,8.0,17.0,88,0.00,,,0.00,WUHU216DAVISVP2,2013-03-17 17:00:00,
2013-03-17 13:05:00,44.7,41.3,30.06,NE,49,9.0,21.0,88,0.00,,,0.00,WUHU216DAVISVP2,2013-03-17 17:05:00,
2013-03-17 13:10:00,44.7,41.3,30.06,ENE,70,13.0,21.0,88,0.00,,,0.00,WUHU216DAVISVP2,2013-03-17 17:10:00,
2013-03-17 13:15:00,44.7,41.0,30.06,ENE,64,11.0,19.0,87,0.00,,,0.00,WUHU216DAVISVP2,2013-03-17 17:15:00,
2013-03-17 13:20:00,44.6,40.7,30.06,NNE,33,10.0,19.0,86,0.00,,,0.00,WUHU216DAVISVP2,2013-03-17 17:20:00,
2013-03-17 13:25:00,44.7,40.8,30.06,ENE,62,19.0,19.0,86,0.00,,,0.00,WUHU216DAVISVP2,2013-03-17 17:25:00,
2013-03-17 13:30:00,44.6,40.7,30.06,ENE,72,13.0,19.0,86,0.00,,,0.00,WUHU216DAVISVP2,2013-03-17 17:30:00,
2013-03-17 13:35:00,44.6,40.7,30.06,ENE,67,12.0,19.0,86,0.00,,,0.00,WUHU216DAVISVP2,2013-03-17 17:35:00,
2013-03-17 13:40:00,44.6,40.7,30.06,ENE,61,10.0,17.0,86,0.00,,,0.00,WUHU216DAVISVP2,2013-03-17 17:40:00,
2013-03-17 13:45:00,44.7,41.0,30.06,SSW,201,2.0,16.0,87,0.00,,,0.00,WUHU216DAVISVP2,2013-03-17 17:45:00,
2013-03-17 13:50:00,44.7,40.8,30.05,ENE,64,10.0,13.0,86,0.00,,,0.00,WUHU216DAVISVP2,2013-03-17 17:50:00,
2013-03-17 13:55:00,44.6,40.7,30.05,ESE,108,7.0,15.0,86,0.00,,,0.00,WUHU216DAVISVP2,2013-03-17 17:55:00,
2013-03-17 14:00:00,44.5,40.6,30.05,ENE,64,8.0,17.0,86,0.00,,,0.00,WUHU216DAVISVP2,2013-03-17 18:00:00,
2013-03-17 14:05:00,44.1,39.9,30.04,ENE,62,14.0,19.0,85,0.00,,,0.00,WUHU216DAVISVP2,2013-03-17 18:05:00,
2013-03-17 14:10:00,43.8,39.9,30.05,NE,56,8.0,19.0,86,0.00,,,0.00,WUHU216DAVISVP2,2013-03-17 18:10:00,
2013-03-17 14:15:00,43.7,39.8,30.05,ENE,64,14.0,21.0,86,0.00,,,0.00,WUHU216DAVISVP2,2013-03-17 18:15:00,
2013-03-17 14:20:00,43.5,39.3,30.04,ENE,64,10.0,21.0,85,0.00,,,0.00,WUHU216DAVISVP2,2013-03-17 18:20:00,
2013-03-17 14:25:00,43.7,39.5,30.04,East,82,6.0,20.0,85,0.00,,,0.00,WUHU216DAVISVP2,2013-03-17 18:25:00,
2013-03-17 14:30:00,44.0,39.5,30.04,ENE,65,11.0,20.0,84,0.00,,,0.00,WUHU216DAVISVP2,2013-03-17 18:30:00,
2013-03-17 14:35:00,44.3,39.5,30.04,East,94,13.0,18.0,83,0.00,,,0.00,WUHU216DAVISVP2,2013-03-17 18:35:00,
2013-03-17 14:40:00,44.3,39.5,30.04,ENE,73,10.0,20.0,83,0.00,,,0.00,WUHU216DAVISVP2,2013-03-17 18:40:00,
2013-03-17 14:45:00,44.5,39.7,30.04,ENE,71,9.0,20.0,83,0.00,,,0.00,WUHU216DAVISVP2,2013-03-17 18:45:00,
2013-03-17 14:50:00,44.8,39.6,30.04,East,96,8.0,18.0,82,0.00,,,0.00,WUHU216DAVISVP2,2013-03-17 18:50:00,
2013-03-17 14:55:00,44.8,39.6,30.04,North,359,3.0,18.0,82,0.00,,,0.00,WUHU216DAVISVP2,2013-03-17 18:55:00,
2013-03-17 15:00:00,44.4,39.6,30.04,NNE,25,7.0,15.0,83,0.00,,,0.00,WUHU216DAVISVP2,2013-03-17 19:00:00,
2013-03-17 15:05:00,44.3,39.5,30.04,ENE,60,15.0,15.0,83,0.00,,,0.00,WUHU216DAVISVP2,2013-03-17 19:05:00,
2013-03-17 15:10:00,44.2,39.1,30.04,East,83,8.0,16.0,82,0.00,,,0.00,WUHU216DAVISVP2,2013-03-17 19:10:00,
2013-03-17 15:15:00,44.2,38.8,30.04,ENE,65,13.0,16.0,81,0.00,,,0.00,WUHU216DAVISVP2,2013-03-17 19:15:00,
2013-03-17 15:20:00,44.0,38.9,30.04,NE,53,13.0,17.0,82,0.00,,,0.00,WUHU216DAVISVP2,2013-03-17 19:20:00,
2013-03-17 15:25:00,43.8,38.7,30.04,ENE,57,10.0,17.0,82,0.00,,,0.00,WUHU216DAVISVP2,2013-03-17 19:25:00,
2013-03-17 15:30:00,44.0,38.9,30.04,West,281,7.0,17.0,82,0.00,,,0.00,WUHU216DAVISVP2,2013-03-17 19:30:00,
2013-03-17 15:35:00,44.2,38.7,30.04,ENE,59,5.0,17.0,81,0.00,,,0.00,WUHU216DAVISVP2,2013-03-17 19:35:00,
2013-03-17 15:40:00,43.9,38.5,30.04,ENE,67,8.0,15.0,81,0.00,,,0.00,WUHU216DAVISVP2,2013-03-17 19:40:00,
2013-03-17 15:45:00,43.7,38.6,30.04,ENE,57,7.0,15.0,82,0.00,,,0.00,WUHU216DAVISVP2,2013-03-17 19:45:00,
2013-03-17 15:50:00,43.4,38.6,30.04,NE,47,11.0,17.0,83,0.00,,,0.00,WUHU216DAVISVP2,2013-03-17 19:50:00,
2013-03-17 15:55:00,43.0,38.2,30.05,ENE,57,14.0,18.0,83,0.00,,,0.00,WUHU216DAVISVP2,2013-03-17 19:55:00,
2013-03-17 16:00:00,42.9,38.4,30.05,NE,54,14.0,19.0,84,0.00,,,0.00,WUHU216DAVISVP2,2013-03-17 20:00:00,
2013-03-17 16:05:00,42.7,38.2,30.05,ENE,63,16.0,21.0,84,0.00,,,0.00,WUHU216DAVISVP2,2013-03-17 20:05:00,
2013-03-17 16:10:00,42.5,38.0,30.05,East,90,16.0,21.0,84,0.00,,,0.00,WUHU216DAVISVP2,2013-03-17 20:10:00,
2013-03-17 16:15:00,42.6,38.1,30.04,ENE,64,7.0,20.0,84,0.00,,,0.00,WUHU216DAVISVP2,2013-03-17 20:15:00,
2013-03-17 16:20:00,42.5,38.3,30.05,NE,43,9.0,19.0,85,0.00,,,0.00,WUHU216DAVISVP2,2013-03-17 20:20:00,
2013-03-17 16:25:00,42.4,38.2,30.05,ENE,64,12.0,18.0,85,0.00,,,0.00,WUHU216DAVISVP2,2013-03-17 20:25:00,
2013-03-17 16:30:00,42.2,38.0,30.05,ENE,57,13.0,17.0,85,0.00,,,0.00,WUHU216DAVISVP2,2013-03-17 20:30:00,
2013-03-17 16:35:00,42.0,37.8,30.05,ENE,78,4.0,17.0,85,0.00,,,0.00,WUHU216DAVISVP2,2013-03-17 20:35:00,
2013-03-17 16:40:00,41.9,37.7,30.05,ENE,59,9.0,17.0,85,0.00,,,0.00,WUHU216DAVISVP2,2013-03-17 20:40:00,
2013-03-17 16:45:00,42.1,37.9,30.05,ENE,62,8.0,17.0,85,0.00,,,0.00,WUHU216DAVISVP2,2013-03-17 20:45:00,
2013-03-17 16:50:00,42.0,37.8,30.05,ENE,60,9.0,17.0,85,0.00,,,0.00,WUHU216DAVISVP2,2013-03-17 20:50:00,
2013-03-17 16:55:00,42.0,37.8,30.05,NE,48,7.0,17.0,85,0.00,,,0.00,WUHU216DAVISVP2,2013-03-17 20:55:00,
2013-03-17 17:00:00,41.7,37.5,30.05,ENE,61,15.0,18.0,85,0.00,,,0.00,WUHU216DAVISVP2,2013-03-17 21:00:00,
2013-03-17 17:05:00,41.5,37.6,30.05,ENE,70,11.0,20.0,86,0.00,,,0.00,WUHU216DAVISVP2,2013-03-17 21:05:00,
2013-03-17 17:10:00,41.4,37.5,30.06,ENE,57,13.0,20.0,86,0.00,,,0.00,WUHU216DAVISVP2,2013-03-17 21:10:00,
2013-03-17 17:15:00,41.3,37.4,30.05,ENE,63,13.0,19.0,86,0.00,,,0.00,WUHU216DAVISVP2,2013-03-17 21:15:00,
2013-03-17 17:20:00,41.5,37.9,30.05,ENE,58,10.0,19.0,87,0.00,,,0.00,WUHU216DAVISVP2,2013-03-17 21:20:00,
2013-03-17 17:25:00,41.3,37.7,30.05,NNE,22,9.0,18.0,87,0.00,,,0.00,WUHU216DAVISVP2,2013-03-17 21:25:00,
2013-03-17 17:30:00,41.4,37.8,30.05,ENE,61,9.0,18.0,87,0.00,,,0.00,WUHU216DAVISVP2,2013-03-17 21:30:00,
2013-03-17 17:35:00,41.3,37.7,30.05,NE,53,15.0,20.0,87,0.00,,,0.00,WUHU216DAVISVP2,2013-03-17 21:35:00,
2013-03-17 17:40:00,41.2,37.6,30.05,ENE,62,12.0,21.0,87,0.00,,,0.00,WUHU216DAVISVP2,2013-03-17 21:40:00,
2013-03-17 17:45:00,41.1,37.5,30.05,ENE,57,10.0,21.0,87,0.00,,,0.00,WUHU216DAVISVP2,2013-03-17 21:45:00,
2013-03-17 17:50:00,41.1,37.5,30.05,ENE,72,8.0,19.0,87,0.00,,,0.00,WUHU216DAVISVP2,2013-03-17 21:50:00,
2013-03-17 17:55:00,41.0,37.7,30.06,NNE,22,6.0,19.0,88,0.00,,,0.00,WUHU216DAVISVP2,2013-03-17 21:55:00,
2013-03-17 18:00:00,40.8,37.5,30.06,NE,53,11.0,18.0,88,0.00,,,0.00,WUHU216DAVISVP2,2013-03-17 22:00:00,
2013-03-17 18:05:00,40.6,37.3,30.06,ENE,57,10.0,20.0,88,0.00,,,0.00,WUHU216DAVISVP2,2013-03-17 22:05:00,
2013-03-17 18:10:00,40.5,37.2,30.06,ENE,61,8.0,20.0,88,0.00,,,0.00,WUHU216DAVISVP2,2013-03-17 22:10:00,
2013-03-17 18:15:00,40.4,37.1,30.07,ENE,61,10.0,19.0,88,0.00,,,0.00,WUHU216DAVISVP2,2013-03-17 22:15:00,
2013-03-17 18:20:00,40.4,37.1,30.07,ENE,58,9.0,19.0,88,0.00,,,0.00,WUHU216DAVISVP2,2013-03-17 22:20:00,
2013-03-17 18:25:00,40.3,37.0,30.07,NE,53,11.0,18.0,88,0.00,,,0.00,WUHU216DAVISVP2,2013-03-17 22:25:00,
2013-03-17 18:30:00,40.3,37.0,30.07,NE,53,11.0,18.0,88,0.00,,,0.00,WUHU216DAVISVP2,2013-03-17 22:30:00,
2013-03-17 18:35:00,40.3,37.0,30.08,North,11,12.0,18.0,88,0.00,,,0.00,WUHU216DAVISVP2,2013-03-17 22:35:00,
2013-03-17 18:40:00,40.2,36.9,30.07,ENE,78,9.0,18.0,88,0.00,,,0.00,WUHU216DAVISVP2,2013-03-17 22:40:00,
2013-03-17 18:45:00,40.2,36.9,30.07,NE,50,11.0,23.0,88,0.00,,,0.00,WUHU216DAVISVP2,2013-03-17 22:45:00,
2013-03-17 18:50:00,40.1,36.8,30.07,NE,34,8.0,23.0,88,0.00,,,0.00,WUHU216DAVISVP2,2013-03-17 22:50:00,
2013-03-17 18:55:00,40.0,36.7,30.08,NE,55,17.0,21.0,88,0.00,,,0.00,WUHU216DAVISVP2,2013-03-17 22:55:00,
2013-03-17 19:00:00,40.0,36.7,30.08,ENE,62,9.0,21.0,88,0.00,,,0.00,WUHU216DAVISVP2,2013-03-17 23:00:00,
2013-03-17 19:05:00,40.0,36.7,30.08,ENE,60,8.0,21.0,88,0.00,,,0.00,WUHU216DAVISVP2,2013-03-17 23:05:00,
2013-03-17 19:10:00,39.9,36.9,30.08,ENE,62,11.0,19.0,89,0.00,,,0.00,WUHU216DAVISVP2,2013-03-17 23:10:00,
2013-03-17 19:15:00,39.9,36.9,30.09,ENE,68,15.0,19.0,89,0.00,,,0.00,WUHU216DAVISVP2,2013-03-17 23:15:00,
2013-03-17 19:20:00,39.9,36.9,30.09,NE,56,15.0,22.0,89,0.00,,,0.00,WUHU216DAVISVP2,2013-03-17 23:20:00,
2013-03-17 19:25:00,39.7,36.7,30.09,NE,46,16.0,22.0,89,0.00,,,0.00,WUHU216DAVISVP2,2013-03-17 23:25:00,
2013-03-17 19:30:00,39.7,36.7,30.09,ENE,57,8.0,22.0,89,0.00,,,0.00,WUHU216DAVISVP2,2013-03-17 23:30:00,
2013-03-17 19:35:00,39.7,36.7,30.09,ENE,64,8.0,21.0,89,0.00,,,0.00,WUHU216DAVISVP2,2013-03-17 23:35:00,
2013-03-17 19:40:00,39.6,36.6,30.09,NE,50,11.0,20.0,89,0.00,,,0.00,WUHU216DAVISVP2,2013-03-17 23:40:00,
2013-03-17 19:45:00,39.5,36.8,30.09,ENE,62,8.0,20.0,90,0.00,,,0.00,WUHU216DAVISVP2,2013-03-17 23:45:00,
2013-03-17 19:50:00,39.5,36.8,30.09,NE,50,5.0,16.0,90,0.00,,,0.00,WUHU216DAVISVP2,2013-03-17 23:50:00,
2013-03-17 19:55:00,39.5,36.8,30.10,NE,36,9.0,15.0,90,0.00,,,0.00,WUHU216DAVISVP2,2013-03-17 23:55:00,
2013-03-17 20:00:00,39.4,36.7,30.10,ENE,63,9.0,14.0,90,0.00,,,0.00,WUHU216DAVISVP2,2013-03-18 00:00:00,
2013-03-17 20:05:00,39.4,36.7,30.11,ENE,62,12.0,15.0,90,0.00,,,0.00,WUHU216DAVISVP2,2013-03-18 00:05:00,
2013-03-17 20:10:00,39.3,36.6,30.11,ENE,60,15.0,20.0,90,0.00,,,0.00,WUHU216DAVISVP2,2013-03-18 00:10:00,
2013-03-17 20:15:00,39.3,36.3,30.12,ENE,58,8.0,20.0,89,0.00,,,0.00,WUHU216DAVISVP2,2013-03-18 00:15:00,
2013-03-17 20:20:00,39.2,36.2,30.12,NE,47,10.0,20.0,89,0.00,,,0.00,WUHU216DAVISVP2,2013-03-18 00:20:00,
2013-03-17 20:25:00,39.1,36.4,30.12,NE,55,13.0,20.0,90,0.00,,,0.00,WUHU216DAVISVP2,2013-03-18 00:25:00,
2013-03-17 20:30:00,39.1,36.4,30.13,SE,129,9.0,20.0,90,0.00,,,0.00,WUHU216DAVISVP2,2013-03-18 00:30:00,
2013-03-17 20:35:00,39.0,36.5,30.13,NE,53,15.0,20.0,91,0.00,,,0.00,WUHU216DAVISVP2,2013-03-18 00:35:00,
2013-03-17 20:40:00,38.9,36.5,30.13,ENE,68,5.0,19.0,91,0.00,,,0.00,WUHU216DAVISVP2,2013-03-18 00:40:00,
2013-03-17 20:45:00,38.8,36.6,30.14,NE,53,12.0,19.0,92,0.00,,,0.00,WUHU216DAVISVP2,2013-03-18 00:45:00,
2013-03-17 20:50:00,38.7,36.6,30.14,NE,53,5.0,16.0,92,0.00,,,0.00,WUHU216DAVISVP2,2013-03-18 00:50:00,
2013-03-17 20:55:00,38.6,36.8,30.14,ENE,62,10.0,15.0,93,0.00,,,0.00,WUHU216DAVISVP2,2013-03-18 00:55:00,
2013-03-17 21:00:00,38.5,36.6,30.14,NE,56,7.0,15.0,93,0.00,,,0.00,WUHU216DAVISVP2,2013-03-18 01:00:00,
2013-03-17 21:05:00,38.4,36.5,30.15,NE,47,6.0,17.0,93,0.00,,,0.00,WUHU216DAVISVP2,2013-03-18 01:05:00,
2013-03-17 21:10:00,38.3,36.4,30.15,ENE,57,13.0,17.0,93,0.00,,,0.00,WUHU216DAVISVP2,2013-03-18 01:10:00,
2013-03-17 21:15:00,38.2,36.3,30.15,East,85,10.0,17.0,93,0.00,,,0.00,WUHU216DAVISVP2,2013-03-18 01:15:00,
2013-03-17 21:20:00,38.1,36.2,30.15,ENE,63,5.0,17.0,93,0.00,,,0.00,WUHU216DAVISVP2,2013-03-18 01:20:00,
2013-03-17 21:25:00,38.1,36.5,30.16,ENE,64,10.0,16.0,94,0.00,,,0.00,WUHU216DAVISVP2,2013-03-18 01:25:00,
2013-03-17 21:30:00,38.0,36.4,30.15,ENE,64,11.0,17.0,94,0.00,,,0.00,WUHU216DAVISVP2,2013-03-18 01:30:00,
2013-03-17 21:35:00,38.0,36.4,30.16,NE,46,7.0,17.0,94,0.00,,,0.00,WUHU216DAVISVP2,2013-03-18 01:35:00,
2013-03-17 21:40:00,38.0,36.4,30.16,NE,43,11.0,15.0,94,0.00,,,0.00,WUHU216DAVISVP2,2013-03-18 01:40:00,
2013-03-17 21:45:00,37.9,36.3,30.16,ENE,68,10.0,15.0,94,0.00,,,0.00,WUHU216DAVISVP2,2013-03-18 01:45:00,
2013-03-17 21:50:00,37.9,36.3,30.16,ENE,57,6.0,13.0,94,0.00,,,0.00,WUHU216DAVISVP2,2013-03-18 01:50:00,
2013-03-17 21:55:00,37.8,36.2,30.16,ENE,63,9.0,13.0,94,0.00,,,0.00,WUHU216DAVISVP2,2013-03-18 01:55:00,
2013-03-17 22:00:00,37.7,36.1,30.16,ENE,75,7.0,13.0,94,0.00,,,0.00,WUHU216DAVISVP2,2013-03-18 02:00:00,
2013-03-17 22:05:00,37.7,36.1,30.17,ENE,63,9.0,13.0,94,0.00,,,0.00,WUHU216DAVISVP2,2013-03-18 02:05:00,
2013-03-17 22:10:00,37.6,36.0,30.16,NE,53,8.0,12.0,94,0.00,,,0.00,WUHU216DAVISVP2,2013-03-18 02:10:00,
2013-03-17 22:15:00,37.5,35.9,30.16,ENE,57,7.0,16.0,94,0.00,,,0.00,WUHU216DAVISVP2,2013-03-18 02:15:00,
2013-03-17 22:20:00,37.4,35.8,30.17,ENE,67,8.0,16.0,94,0.00,,,0.00,WUHU216DAVISVP2,2013-03-18 02:20:00,
2013-03-17 22:25:00,37.4,36.1,30.17,ENE,62,6.0,15.0,95,0.00,,,0.00,WUHU216DAVISVP2,2013-03-18 02:25:00,
2013-03-17 22:30:00,37.4,36.1,30.17,NE,54,10.0,15.0,95,0.00,,,0.00,WUHU216DAVISVP2,2013-03-18 02:30:00,
2013-03-17 22:35:00,37.3,36.0,30.17,ENE,61,12.0,14.0,95,0.00,,,0.00,WUHU216DAVISVP2,2013-03-18 02:35:00,
2013-03-17 22:40:00,37.3,36.0,30.17,ENE,57,10.0,14.0,95,0.00,,,0.00,WUHU216DAVISVP2,2013-03-18 02:40:00,
2013-03-17 22:45:00,37.2,35.9,30.17,ENE,67,5.0,14.0,95,0.00,,,0.00,WUHU216DAVISVP2,2013-03-18 02:45:00,
2013-03-17 22:50:00,37.2,35.9,30.17,NE,39,8.0,14.0,95,0.00,,,0.00,WUHU216DAVISVP2,2013-03-18 02:50:00,
2013-03-17 22:55:00,37.2,35.9,30.17,NE,47,6.0,13.0,95,0.00,,,0.00,WUHU216DAVISVP2,2013-03-18 02:55:00,
2013-03-17 23:00:00,37.2,35.9,30.18,ENE,67,7.0,12.0,95,0.00,,,0.00,WUHU216DAVISVP2,2013-03-18 03:00:00,
2013-03-17 23:05:00,37.1,35.8,30.18,ENE,59,8.0,12.0,95,0.00,,,0.00,WUHU216DAVISVP2,2013-03-18 03:05:00,
2013-03-17 23:10:00,37.1,35.8,30.18,NNE,33,7.0,15.0,95,0.00,,,0.00,WUHU216DAVISVP2,2013-03-18 03:10:00,
2013-03-17 23:15:00,37.1,35.8,30.18,ENE,70,4.0,15.0,95,0.00,,,0.00,WUHU216DAVISVP2,2013-03-18 03:15:00,
2013-03-17 23:20:00,37.2,35.9,30.18,ENE,78,9.0,13.0,95,0.00,,,0.00,WUHU216DAVISVP2,2013-03-18 03:20:00,
2013-03-17 23:25:00,37.1,35.8,30.18,ENE,58,6.0,13.0,95,0.00,,,0.00,WUHU216DAVISVP2,2013-03-18 03:25:00,
2013-03-17 23:30:00,37.1,35.8,30.18,ENE,57,5.0,12.0,95,0.00,,,0.00,WUHU216DAVISVP2,2013-03-18 03:30:00,
2013-03-17 23:35:00,37.1,35.8,30.18,ENE,57,7.0,11.0,95,0.00,,,0.00,WUHU216DAVISVP2,2013-03-18 03:35:00,
2013-03-17 23:40:00,37.1,35.8,30.18,ENE,63,5.0,11.0,95,0.00,,,0.00,WUHU216DAVISVP2,2013-03-18 03:40:00,
2013-03-17 23:45:00,37.1,35.8,30.19,NNE,20,4.0,9.0,95,0.00,,,0.00,WUHU216DAVISVP2,2013-03-18 03:45:00,
2013-03-17 23:50:00,37.0,35.7,30.18,ENE,60,7.0,9.0,95,0.00,,,0.00,WUHU216DAVISVP2,2013-03-18 03:50:00,
2013-03-17 23:55:00,37.0,35.7,30.18,ENE,59,6.0,10.0,95,0.00,,,0.00,WUHU216DAVISVP2,2013-03-18 03:55:00,